Torna al catalogo

STARLINK-37603

AttivoComunicazioniVLEO
NORAD 69846·PAYLOAD·🇺🇸 United States

Lanciato Jul 5, 2026 da Cape Canaveral Space Force Station

Loading…

Prossimi Passaggi (prossime 24 ore)

TLE

AggiornatoSource: CelesTrak SupGP

Epoca: Sep 14, 2026, 21:17 UTC

1 69846C 26154AD  26257.88729167 -.00006517  00000+0 -19265-3 0  2574
2 69846  53.1584 357.6297 0001173  80.8271 171.2916 15.34377434    17

Traccia STARLINK-37603 in tempo reale con AllMySat

Download on the App Store